TimeEST,TemperatureF,Dew PointF,Humidity,Sea Level PressureIn,VisibilityMPH,Wind Direction,Wind SpeedMPH,Gust SpeedMPH,PrecipitationIn,Events,Conditions,WindDirDegrees,DateUTC
12:51 AM,37.0,28.9,73,30.21,10.0,NE,9.2,-,N/A,,Partly Cloudy,50,2013-02-26 05:51:00
1:51 AM,36.0,28.9,76,30.25,10.0,NNE,5.8,-,N/A,,Partly Cloudy,30,2013-02-26 06:51:00
2:51 AM,36.0,28.9,76,30.25,10.0,NE,5.8,-,N/A,,Partly Cloudy,50,2013-02-26 07:51:00
3:51 AM,35.1,28.9,78,30.25,10.0,NE,4.6,-,N/A,,Partly Cloudy,50,2013-02-26 08:51:00
4:51 AM,34.0,28.0,79,30.25,10.0,ENE,3.5,-,N/A,,Partly Cloudy,70,2013-02-26 09:51:00
5:51 AM,35.1,28.9,78,30.25,10.0,NE,6.9,-,N/A,,Scattered Clouds,40,2013-02-26 10:51:00
6:51 AM,35.1,30.0,82,30.25,10.0,NE,9.2,-,N/A,,Scattered Clouds,50,2013-02-26 11:51:00
7:51 AM,37.0,32.0,82,30.28,7.0,ENE,8.1,-,N/A,,Mostly Cloudy,60,2013-02-26 12:51:00
8:51 AM,37.0,32.0,82,30.30,8.0,NE,8.1,-,N/A,,Overcast,40,2013-02-26 13:51:00
9:51 AM,39.0,32.0,76,30.27,10.0,NE,10.4,-,N/A,,Mostly Cloudy,50,2013-02-26 14:51:00
10:51 AM,37.9,32.0,79,30.29,10.0,NE,11.5,-,N/A,,Overcast,50,2013-02-26 15:51:00
11:51 AM,39.0,32.0,76,30.27,10.0,NE,11.5,-,N/A,,Overcast,50,2013-02-26 16:51:00
12:51 PM,41.0,32.0,70,30.25,10.0,NNE,9.2,-,N/A,,Overcast,30,2013-02-26 17:51:00
1:51 PM,44.1,28.9,55,30.21,10.0,East,13.8,-,N/A,,Overcast,100,2013-02-26 18:51:00
2:51 PM,43.0,27.0,53,30.20,10.0,East,18.4,-,N/A,,Overcast,100,2013-02-26 19:51:00
3:51 PM,43.0,27.0,53,30.19,10.0,ESE,12.7,-,N/A,,Overcast,120,2013-02-26 20:51:00
4:51 PM,43.0,28.0,56,30.17,10.0,East,15.0,-,N/A,,Overcast,100,2013-02-26 21:51:00
5:51 PM,39.9,28.0,63,30.14,10.0,East,17.3,-,N/A,,Overcast,100,2013-02-26 22:51:00
6:51 PM,39.9,26.1,58,30.13,10.0,East,17.3,24.2,N/A,,Overcast,100,2013-02-26 23:51:00
7:51 PM,39.0,28.9,67,30.11,10.0,East,13.8,-,0.00,Rain,Light Rain,90,2013-02-27 00:51:00
8:51 PM,39.9,30.9,70,30.06,10.0,ENE,15.0,-,0.01,,Overcast,70,2013-02-27 01:51:00
9:32 PM,37.4,32.0,81,30.02,10.0,NE,15.0,-,0.00,Rain,Light Rain,50,2013-02-27 02:32:00
9:51 PM,37.0,32.0,82,30.02,10.0,ENE,15.0,-,0.00,Rain,Light Rain,60,2013-02-27 02:51:00
10:33 PM,37.4,33.8,87,30.00,6.0,ENE,16.1,-,0.02,Rain,Light Rain,70,2013-02-27 03:33:00
10:51 PM,36.0,33.1,89,29.97,5.0,ENE,17.3,-,0.04,Rain,Light Rain,60,2013-02-27 03:51:00
11:51 PM,36.0,33.1,89,29.91,10.0,ENE,19.6,-,0.06,Rain,Light Rain,70,2013-02-27 04:51:00